Location: Guilderland
(42.7045°N, 73.9115°W)
Time: 18:02:21
(UTC+00:00)

NOAA 11 - Pass Details

Date: 24 January 2020
Orbit: 832 x 850 km, 98.4° (Epoch: 23 February)

Event Time Altitude Azimuth Distance (km) Brightness Sun altitude
Rises 22:56:55 0° 147° (SSE) 3,402 7.2 -10.9°
Reaches altitude 10° 22:59:21 10° 141° (SE) 2,469 6.4 -11.4°
Maximum altitude 23:04:34 46° 70° (ENE) 1,124 4.4 -12.3°
Drops below altitude 10° 23:09:47 10° 358° (N) 2,477 6.5 -13.2°
Sets 23:12:14 0° 353° (N) 3,413 7.3 -13.7°
